Temperature
18 18 18 18 18 18 18 18 18 18 18 18 18 18 18 18 18 18 18 18 17 17 17 17 17 17 17 17 17 17 17 17 17 17 16 16 16 16 16 16 16 16 16
18 18 18 18 18 18 18 18 18 18 18 18 18 18 18 18 18 18 18 18 17 17 17 17 17 17 17 17 17 17 17 17 17 17 16 16 16 16 16 16 16 16 16
18 18 18 18 18 18 18 18 18 18 18 18 18 18 18 18 18 18 18 18 17 17 17 17 17 17 17 17 17 17 17 17 17 17 16 16 16 16 16 16 16 16 16
18 18 18 18 18 18 18 18 18 18 18 18 18 18 18 18 18 18 18 18 18 17 17 17 17 17 17 17 17 17 17 17 17 16 16 16 16 16 16 16 16 16 16
18 18 18 18 18 18 18 18 18 18 18 18 18 18 18 18 18 18 18 17 17 17 17 17 17 17 17 17 17 17 17 17 17 16 16 16 16 16 16 16 16 16 16
18 18 18 18 18 18 18 18 18 18 18 18 18 17 17 17 17 17 17 17 17 17 17 17 17 17 17 17 17 17 17 17 16 16 16 16 16 16 16 16 16 16 16
18 18 18 18 18 18 18 18 18 17 17 17 17 17 17 17 17 17 17 17 17 17 17 17 17 17 17 17 17 17 16 16 16 16 16 16 16 16 16 16 16 15 15
18 18 18 18 18 18 17 18 17 17 17 17 17 17 17 17 17 17 17 17 17 17 17 17 17 17 17 17 17 16 16 16 16 16 16 16 16 16 16 15 15 15 15
18 18 18 18 17 17 17 17 17 17 17 17 17 17 17 17 17 17 17 17 17 17 16 16 16 16 16 16 16 16 16 16 16 16 16 15 15 15 15 15 15 15 15
18 18 18 17 17 17 17 17 17 17 17 17 17 17 17 17 16 16 16 16 16 16 16 16 16 16 16 16 16 16 16 16 16 16 15 15 15 15 15 15 15 15 15
18 18 18 17 17 17 17 17 17 17 17 17 17 17 17 16 16 16 16 15 15 15 15 15 16 16 16 16 16 16 15 15 15 15 15 15 15 14 14 14 14 14 14
18 18 18 17 17 17 17 17 17 17 17 17 17 17 17 16 16 16 16 15 15 15 15 15 15 15 15 15 15 15 15 15 15 15 15 14 14 14 14 14 14 14 14
18 18 18 18 18 17 17 17 17 17 17 17 17 17 16 16 16 16 16 15 15 14 14 14 14 14 14 14 14 14 14 14 14 14 14 14 14 14 14 14 14 14 14
18 18 17 17 17 17 17 17 17 17 17 17 16 16 16 16 16 16 16 15 14 14 14 14 14 14 14 14 14 14 14 14 14 14 14 14 14 13 13 13 13 13 13
18 17 17 17 17 17 17 17 17 17 16 16 16 16 16 16 16 16 15 15 15 14 13 13 13 13 13 13 13 13 13 13 13 13 13 13 13 13 13 13 13 13 13
17 17 17 17 17 17 16 16 16 16 16 16 16 16 16 15 15 15 15 15 15 15 13 13 13 13 13 13 13 13 13 13 13 13 12 12 12 12 12 12 12 12 12
17 17 17 17 17 16 16 16 16 16 16 16 16 16 15 15 15 15 15 15 14 14 14 13 13 12 12 12 12 12 12 12 12 12 12 12 12 12 11 11 11 11 11
17 17 16 16 16 16 16 16 16 16 15 15 15 15 15 15 15 15 14 14 14 14 14 13 12 12 12 12 12 12 12 12 11 11 11 11 11 11 11 11 11 11 11
17 16 16 16 16 16 16 15 15 15 15 15 15 15 15 15 15 14 14 14 14 13 13 13 12 12 12 12 11 11 11 11 11 11 11 11 10 10 10 10 10 10 10
17 16 16 16 16 15 15 15 15 15 15 15 15 14 14 14 14 14 14 14 13 13 13 13 12 12 11 11 11 11 11 11 10 10 10 10 10 10 10 10 10 9 9
16 16 16 16 15 15 15 15 15 15 15 14 14 14 14 14 14 14 13 13 13 13 13 12 12 12 11 11 11 11 11 10 10 10 10 9 9 9 9 9 9 9 9
16 16 16 16 15 15 15 15 14 14 14 14 14 14 14 13 13 13 13 13 13 13 13 12 12 12 11 11 11 11 11 10 10 9 9 9 9 9 9 9 8 8 8
16 16 15 15 15 15 14 14 14 14 14 14 14 13 13 13 13 13 13 13 12 12 12 12 12 12 11 11 11 10 10 10 10 9 9 9 9 9 8 8 8 8 8
16 16 15 15 15 15 14 14 14 14 14 14 13 13 13 13 13 12 12 12 12 12 11 11 11 11 11 11 11 11 10 10 9 9 9 9 8 8 8 8 8 8 8
16 15 15 15 14 14 14 14 14 14 13 13 13 13 12 12 12 12 12 12 12 11 11 11 11 11 11 10 10 10 10 10 9 9 9 8 8 8 8 8 8 8 7
15 15 15 14 14 14 14 13 13 13 13 13 13 12 12 12 12 12 12 12 11 11 11 11 11 10 10 10 10 10 10 9 9 9 8 8 8 8 8 8 8 7 7
Wind_Speed
1 1 1 2 2 1 1 1 1 1 1 2 2 2 3 4 5 5 6 8 10 11 12 12 12 12 13 13 13 13 13 13 12 12 12 12 12 12 12 11 11 11 11
2 1 1 1 2 2 2 2 2 1 1 1 2 2 3 4 4 5 5 7 9 10 12 12 13 13 14 14 14 13 14 14 14 14 13 13 12 12 12 12 13 13 13
3 2 1 1 2 2 2 1 1 1 1 1 1 2 2 3 4 5 5 5 6 9 10 12 13 14 14 14 14 15 15 15 15 14 14 13 13 13 13 13 13 13 14
2 2 1 1 2 1 1 1 1 1 1 1 1 2 1 2 3 4 4 5 5 5 6 9 10 11 12 12 13 14 15 16 16 16 16 15 15 15 15 14 14 14 14
1 2 1 2 2 1 1 2 1 2 1 1 1 1 1 2 2 3 3 4 4 4 4 6 7 8 10 10 11 11 11 14 16 17 17 17 16 16 15 15 15 15 14
0 1 1 1 1 1 1 1 1 1 1 1 1 1 1 1 1 2 2 2 2 3 3 4 5 6 7 9 9 11 11 11 12 13 14 13 13 13 12 12 12 12 13
1 1 0 1 0 1 1 1 1 1 1 1 1 1 1 1 0 1 1 1 1 2 2 3 3 4 4 6 8 10 10 10 11 11 11 11 12 12 13 13 12 11 11
1 0 1 0 0 0 1 1 1 1 1 2 2 1 1 2 2 1 0 1 1 1 1 1 2 2 3 3 3 5 8 9 9 9 9 9 10 10 10 10 10 11 11
2 1 0 0 1 1 1 2 2 2 2 1 2 2 2 2 1 2 2 1 1 1 0 1 0 1 2 2 2 3 4 5 5 6 6 7 7 8 10 10 10 10 11
3 2 1 0 0 1 1 2 1 2 2 2 1 1 2 2 2 0 2 2 2 2 1 1 2 2 1 1 1 2 2 2 2 3 3 3 5 6 6 7 8 8 8
3 3 2 1 1 1 1 1 1 1 2 2 2 1 1 1 2 2 1 1 2 2 2 2 2 3 3 2 3 4 4 3 2 1 0 1 2 2 2 3 5 5 5
2 3 2 2 1 1 1 1 1 1 1 2 2 2 2 2 2 2 2 1 1 2 3 3 3 4 4 4 4 6 6 5 5 5 3 2 1 1 1 1 1 2 2
1 2 2 1 1 1 1 1 1 1 1 1 1 1 2 2 2 2 4 2 1 1 2 3 4 4 5 5 6 7 8 8 8 8 7 7 6 5 5 5 5 4 3
1 1 2 2 2 2 2 1 1 1 1 0 0 0 0 0 1 3 3 3 2 1 2 2 3 5 6 7 8 9 9 12 11 11 9 9 9 9 9 10 9 8 7
0 1 2 2 3 3 3 2 2 2 2 1 1 1 1 1 1 2 2 3 3 2 1 1 2 3 5 8 9 9 10 13 13 13 13 12 12 11 11 11 10 10 10
1 2 2 2 3 3 4 3 3 3 3 3 2 3 2 2 2 1 1 1 2 3 2 2 2 2 5 6 9 9 10 12 14 14 14 14 14 14 13 12 12 11 11
2 2 2 3 3 4 3 4 3 4 4 4 4 4 3 3 3 2 2 2 3 3 5 2 2 3 4 5 6 8 10 10 12 14 14 14 14 14 14 14 13 13 13
3 3 3 4 4 4 4 4 4 4 4 4 4 4 4 3 4 3 3 3 3 3 5 5 2 3 3 4 4 5 7 9 10 13 13 13 14 14 14 14 14 14 14
3 3 4 4 3 4 4 4 4 5 4 4 4 4 3 4 4 3 4 4 4 4 4 5 3 2 2 3 4 5 6 6 8 9 11 12 13 13 13 13 13 14 14
3 3 3 3 3 4 4 4 4 5 5 4 4 4 4 4 3 4 4 5 5 6 6 6 5 3 3 2 3 4 4 4 4 6 8 9 11 13 13 13 12 13 13
4 4 4 4 4 4 3 4 4 5 5 5 5 4 4 5 6 4 4 4 5 5 5 5 5 3 3 3 2 2 3 3 3 4 3 5 6 7 8 10 11 11 12
4 4 4 4 4 3 5 6 5 4 4 5 4 4 4 6 7 8 8 7 6 6 5 5 4 4 3 3 2 3 3 3 2 2 2 3 3 3 4 6 8 9 10
4 4 4 4 3 3 5 7 8 5 5 5 4 4 4 5 6 5 7 9 8 7 5 4 5 4 4 4 4 4 3 3 2 1 2 2 2 2 2 4 5 6 7
4 3 3 3 3 4 6 7 8 6 6 5 5 4 4 4 4 4 6 6 6 5 4 3 3 3 3 4 5 4 4 4 3 2 1 1 1 1 1 2 3 3 4
4 3 3 3 4 3 5 6 6 5 5 5 5 4 4 4 4 5 6 6 5 4 6 8 7 6 7 8 7 5 5 4 2 1 1 1 0 0 0 1 2 2 2
4 4 3 3 3 2 3 5 6 4 4 3 3 4 5 4 4 5 5 5 5 3 3 5 6 7 6 6 6 4 4 3 2 1 0 1 1 0 0 0 1 2 1
Wind_Direction
250 277 275 273 270 262 238 216 228 255 255 261 239 211 214 216 215 217 223 226 224 220 216 214 213 211 211 210 210 210 210 209 208 208 211 210 209 210 212 213 213 213 212
216 230 257 263 265 250 239 227 230 246 262 257 262 240 228 223 219 218 224 228 227 225 223 220 219 217 218 218 217 217 218 216 215 214 215 216 217 218 219 221 221 222 222
209 203 227 264 264 239 217 212 235 248 254 243 254 242 227 224 222 223 225 229 232 230 230 229 228 226 224 225 223 220 221 220 219 217 216 219 222 224 224 225 226 226 227
212 188 207 263 266 220 189 187 203 235 255 249 265 271 248 229 223 223 223 226 228 229 232 233 231 231 231 229 226 224 224 225 224 222 221 223 226 228 229 230 230 230 231
193 180 208 260 249 203 199 217 195 190 218 241 257 263 253 241 236 227 219 219 219 225 231 237 234 235 234 234 232 229 227 227 227 226 226 226 228 230 231 234 234 233 233
196 169 211 270 225 184 217 208 202 197 211 227 295 329 318 261 238 229 223 208 205 212 225 234 241 248 245 241 240 237 234 229 225 223 225 224 222 224 224 227 230 231 232
45 97 30 317 228 206 228 202 178 179 196 153 109 8 4 21 278 241 225 200 210 213 215 228 244 252 256 258 253 247 240 233 227 224 220 220 222 222 223 223 224 228 233
350 123 158 278 242 239 258 206 180 181 206 173 160 151 339 358 12 341 200 191 220 194 197 235 245 250 255 262 271 257 248 242 235 227 222 221 223 222 221 218 222 228 230
345 342 135 236 247 223 250 246 204 198 218 220 191 172 173 229 323 16 34 68 88 136 187 57 25 281 264 271 284 289 267 255 246 244 237 234 229 230 232 231 231 232 232
359 355 13 155 244 240 266 268 224 216 199 216 222 221 205 175 186 325 23 42 54 48 23 28 17 8 2 23 16 352 313 274 260 258 244 234 230 235 237 240 242 242 241
0 0 13 24 354 312 296 295 278 221 207 202 203 202 192 186 193 198 229 33 46 39 39 32 36 39 44 56 53 49 50 51 61 67 232 217 219 223 233 253 254 253 247
356 2 8 1 343 331 318 302 293 266 224 211 209 206 191 185 189 186 199 185 77 37 42 40 40 44 48 53 63 66 64 67 72 67 58 54 52 61 65 308 292 281 262
346 343 356 347 335 327 337 347 355 347 305 233 222 220 214 215 188 165 160 172 153 53 44 44 37 43 51 51 57 62 61 68 70 68 60 55 55 55 54 52 55 56 54
266 341 15 17 8 7 10 23 23 2 29 22 309 203 137 194 167 165 164 159 152 98 59 43 36 43 52 57 59 61 62 66 67 66 64 62 63 65 70 67 62 57 53
132 38 41 33 24 29 31 47 46 29 42 39 34 58 68 47 110 141 157 170 169 171 120 54 43 36 54 63 63 67 69 71 71 70 68 67 68 68 67 68 66 61 57
81 66 56 47 42 39 38 49 49 41 56 43 52 68 62 54 73 96 147 152 158 159 138 82 63 52 61 72 68 72 73 72 70 72 71 71 70 68 66 67 66 63 61
73 69 66 65 61 51 47 57 51 52 62 52 50 65 63 65 73 65 85 100 105 118 127 102 70 64 63 72 70 73 73 72 71 71 74 74 73 70 68 66 65 65 65
72 74 73 72 68 60 58 64 58 55 65 60 52 61 59 72 71 69 83 94 101 106 129 127 94 70 69 83 82 78 75 76 74 71 73 73 72 71 69 68 67 66 65
77 72 76 76 71 67 67 67 69 66 67 65 62 67 66 80 77 76 84 92 98 104 108 123 114 88 79 92 88 80 74 69 75 72 70 69 70 70 68 67 65 64 64
90 79 77 79 83 79 73 73 74 70 64 60 57 61 65 78 91 94 94 96 103 106 108 115 115 105 99 97 103 98 82 63 66 65 66 68 68 68 66 65 65 65 66
93 89 82 70 68 77 76 80 79 75 65 58 52 51 59 72 77 92 105 109 114 115 116 117 119 115 117 130 127 124 110 92 64 54 65 58 57 57 55 57 60 64 66
93 87 81 77 68 68 83 88 91 79 68 62 55 45 53 60 72 79 90 98 110 126 134 134 135 144 154 149 135 138 132 120 98 43 69 57 51 56 46 53 56 63 66
105 95 87 84 76 70 89 93 89 87 74 64 59 52 55 56 67 84 82 78 77 85 109 144 149 162 168 171 157 146 138 124 114 100 99 70 46 52 39 51 55 61 66
116 107 97 91 87 82 93 97 96 87 77 62 55 59 66 54 65 90 94 83 71 63 70 102 135 154 157 165 165 154 142 116 92 81 90 93 48 33 18 25 42 57 63
121 112 107 99 96 85 95 107 106 94 80 63 52 54 64 65 65 93 101 96 79 60 66 76 86 97 106 115 129 125 122 123 113 99 50 90 73 5 356 360 1 17 38
131 124 104 93 103 98 104 116 119 111 95 77 58 49 55 71 77 96 111 112 100 77 71 69 69 77 88 100 108 123 144 143 126 140 138 128 106 69 52 348 341 353 1
Height
1554 1554 1554 1555 1555 1556 1556 1557 1557 1558 1559 1559 1559 1560 1561 1561 1561 1562 1562 1563 1563 1564 1564 1565 1566 1566 1567 1568 1569 1570 1571 1572 1573 1574 1575 1576 1577 1578 1579 1580 1580 1581 1582
1554 1555 1555 1555 1556 1556 1556 1557 1557 1558 1559 1559 1559 1560 1560 1560 1561 1561 1562 1562 1563 1563 1563 1564 1565 1565 1566 1567 1568 1568 1569 1570 1571 1572 1573 1574 1575 1576 1577 1578 1579 1579 1580
1555 1555 1555 1555 1556 1556 1556 1557 1557 1557 1558 1559 1559 1559 1559 1560 1560 1560 1561 1561 1561 1562 1562 1563 1563 1564 1565 1565 1566 1566 1567 1568 1569 1570 1571 1572 1573 1573 1575 1576 1577 1577 1578
1554 1554 1554 1555 1555 1555 1556 1556 1556 1556 1557 1557 1557 1558 1558 1558 1559 1559 1559 1560 1560 1560 1561 1561 1561 1562 1562 1563 1563 1564 1565 1565 1566 1567 1568 1569 1570 1571 1572 1573 1573 1574 1575
1553 1553 1553 1553 1554 1554 1554 1555 1555 1555 1556 1556 1556 1556 1556 1556 1556 1557 1557 1557 1558 1558 1559 1559 1559 1559 1560 1560 1561 1561 1562 1562 1563 1564 1565 1565 1566 1567 1568 1569 1570 1571 1572
1553 1553 1553 1552 1553 1553 1553 1553 1554 1554 1554 1554 1554 1554 1553 1553 1554 1554 1555 1555 1555 1556 1556 1556 1556 1557 1557 1557 1558 1558 1558 1559 1560 1560 1561 1562 1563 1564 1564 1565 1566 1567 1568
1552 1552 1552 1552 1552 1552 1552 1552 1552 1552 1552 1552 1552 1552 1551 1551 1551 1552 1552 1553 1553 1553 1554 1554 1554 1554 1554 1555 1555 1555 1555 1556 1557 1557 1558 1559 1559 1560 1560 1561 1562 1563 1564
1552 1552 1551 1551 1551 1551 1550 1550 1550 1550 1550 1550 1550 1550 1550 1551 1550 1550 1550 1551 1551 1551 1551 1551 1551 1552 1552 1552 1552 1552 1552 1553 1554 1554 1555 1555 1556 1556 1557 1557 1558 1559 1559
1551 1551 1551 1550 1550 1550 1549 1549 1549 1548 1548 1548 1549 1549 1549 1548 1549 1549 1549 1549 1549 1549 1549 1549 1549 1549 1550 1550 1550 1550 1550 1550 1551 1551 1551 1552 1552 1552 1553 1553 1554 1555 1555
1551 1550 1550 1550 1549 1549 1548 1548 1547 1547 1546 1546 1546 1547 1547 1547 1548 1547 1548 1548 1548 1547 1547 1547 1547 1547 1547 1547 1547 1547 1547 1547 1547 1547 1548 1548 1548 1548 1549 1549 1550 1550 1551
1550 1550 1549 1549 1548 1548 1547 1546 1546 1545 1544 1544 1544 1544 1544 1545 1545 1545 1546 1546 1546 1546 1545 1545 1545 1545 1545 1545 1545 1545 1545 1545 1545 1545 1545 1544 1545 1545 1545 1546 1546 1546 1547
1550 1549 1549 1548 1547 1546 1546 1545 1544 1543 1543 1542 1542 1542 1542 1542 1542 1543 1543 1544 1544 1545 1544 1544 1544 1543 1544 1544 1544 1544 1543 1543 1542 1542 1542 1542 1542 1542 1542 1542 1543 1543 1543
1549 1549 1548 1547 1546 1545 1544 1544 1543 1542 1541 1540 1540 1540 1540 1540 1540 1541 1541 1541 1542 1543 1543 1543 1543 1542 1542 1542 1542 1542 1541 1541 1540 1540 1540 1540 1540 1539 1539 1540 1540 1540 1540
1548 1548 1547 1546 1545 1544 1543 1542 1541 1540 1539 1538 1538 1538 1538 1538 1538 1539 1539 1540 1540 1541 1542 1542 1542 1542 1542 1542 1541 1541 1540 1540 1539 1539 1539 1539 1538 1538 1538 1538 1538 1538 1538
1547 1547 1546 1545 1544 1543 1542 1541 1540 1539 1538 1537 1537 1537 1536 1536 1537 1537 1537 1538 1539 1539 1540 1540 1541 1541 1541 1541 1541 1541 1540 1540 1539 1539 1539 1538 1538 1537 1537 1537 1537 1536 1536
1546 1546 1545 1544 1543 1542 1542 1541 1539 1538 1538 1537 1536 1536 1535 1535 1535 1535 1536 1536 1537 1538 1538 1539 1540 1541 1541 1541 1541 1541 1540 1540 1539 1539 1539 1539 1538 1537 1537 1536 1536 1536 1536
1546 1545 1544 1543 1542 1542 1541 1540 1539 1538 1537 1536 1536 1535 1535 1535 1535 1535 1535 1535 1536 1537 1537 1538 1540 1541 1541 1541 1541 1541 1541 1540 1540 1540 1540 1539 1539 1538 1537 1536 1536 1536 1535
1545 1544 1544 1543 1542 1541 1540 1540 1539 1538 1537 1536 1535 1535 1535 1534 1534 1534 1534 1535 1535 1536 1537 1537 1539 1540 1541 1542 1542 1542 1542 1541 1541 1541 1541 1540 1539 1539 1538 1537 1537 1536 1535
1544 1544 1543 1542 1542 1541 1540 1539 1539 1538 1537 1536 1536 1535 1535 1535 1534 1534 1534 1535 1535 1536 1537 1537 1539 1540 1541 1542 1542 1542 1542 1542 1542 1542 1542 1541 1540 1540 1539 1539 1538 1537 1536
1544 1543 1543 1542 1542 1541 1541 1540 1539 1538 1538 1537 1536 1536 1535 1535 1534 1534 1535 1535 1536 1536 1537 1538 1539 1540 1541 1542 1542 1542 1543 1543 1543 1543 1543 1542 1542 1541 1541 1540 1539 1539 1537
1543 1543 1543 1542 1542 1541 1541 1540 1540 1539 1538 1537 1537 1536 1536 1536 1535 1535 1535 1536 1536 1537 1538 1538 1539 1540 1541 1541 1542 1543 1543 1544 1544 1544 1544 1544 1543 1543 1542 1541 1541 1540 1539
1543 1543 1543 1542 1542 1542 1541 1541 1540 1539 1538 1537 1537 1537 1536 1536 1536 1536 1536 1537 1537 1538 1538 1539 1539 1540 1541 1542 1542 1543 1543 1544 1544 1545 1545 1545 1545 1544 1543 1543 1542 1541 1540
1542 1543 1543 1542 1542 1542 1542 1541 1540 1540 1539 1538 1537 1537 1537 1537 1537 1537 1537 1538 1538 1539 1539 1540 1540 1540 1541 1542 1542 1543 1544 1544 1544 1545 1545 1545 1545 1545 1545 1544 1543 1542 1541
1542 1542 1542 1542 1542 1542 1542 1541 1541 1540 1539 1539 1538 1538 1538 1538 1538 1538 1538 1538 1539 1539 1540 1540 1541 1541 1542 1542 1543 1544 1544 1544 1545 1545 1545 1545 1545 1545 1545 1545 1544 1543 1542
1541 1541 1542 1542 1542 1542 1542 1542 1541 1541 1540 1540 1539 1539 1539 1539 1539 1539 1539 1539 1539 1540 1540 1541 1541 1542 1542 1543 1543 1544 1544 1544 1544 1545 1545 1545 1545 1545 1545 1545 1544 1544 1543
1540 1540 1541 1541 1542 1542 1542 1542 1542 1541 1541 1541 1540 1540 1540 1540 1540 1540 1540 1540 1540 1541 1541 1541 1542 1542 1543 1543 1544 1544 1544 1544 1544 1545 1545 1545 1545 1545 1545 1544 1544 1543 1543